Location: Friaudour
(46.0460°N, 1.2873°E)
Time: 07:15:19
(UTC+00:00)

Okean 1-7 - Pass Details

Date: 14 July 2020
Orbit: 591 x 618 km, 82.5° (Epoch: 14 August)

Event Time Altitude Azimuth Distance (km) Brightness Sun altitude
Rises 01:11:45 0° 351° (N) 2,905 7.6 -20.4°
Reaches altitude 10° 01:14:00 10° 353° (N) 1,994 6.6 -20.3°
Maximum altitude 01:18:25 82° 81° (E) 630 3.0 -20.1°
Enters shadow 01:19:47 44° 163° (SSE) 855 3.4 -20.0°
